Location: Arclight Observatory
(36.5667°N, 87.3333°W)
Time: 16:22:03
(UTC-05:00)

Daily predictions for brighter satellites

Satellite Brightness Start Highest point End
(mag) Time Altitude Azimuth Time Altitude Azimuth Time Altitude Azimuth
H-2A R/B 3.3 20:16:26 10° S 20:20:06 60° W 20:23:46 10° NNW
Cosmos 1125 Rocket 4.1 20:15:02 10° NNW 20:20:16 62° WSW 20:25:26 10° S
Cosmos 1340 3.6 20:18:20 10° SSW 20:22:03 54° W 20:25:48 10° N
Genesis I 4.5 20:19:27 10° NW 20:23:10 39° WSW 20:26:51 10° S
Helios 1A 3.8 20:21:07 10° SE 20:24:58 35° ENE 20:28:49 10° N
Resurs 1-3 3.6 20:21:52 10° SSE 20:26:16 89° ENE 20:30:40 10° NNW
PSLV R/B 4.0 20:23:53 10° W 20:26:55 48° NNW 20:29:58 10° ENE
Resurs 01 Rocket 1.9 20:25:41 10° S 20:30:06 71° WSW 20:34:33 10° NNW
Cosmos 292 Rocket 3.9 20:27:15 10° S 20:31:58 56° ESE 20:36:41 10° NNE
Envisat 3.3 20:27:37 10° SE 20:32:29 49° ENE 20:37:22 10° N
Cosmos 1544 Rocket 3.9 20:29:45 10° N 20:33:54 44° E 20:38:02 10° SSE
Cosmos 724 4.3 20:28:02 10° NNW 20:34:04 78° ENE 20:39:55 10° SSE
Iridium 4 Rocket 3.5 20:34:23 10° N 20:39:22 76° E 20:44:49 10° S
RESURS DK-1 3.0 20:47:28 10° SW 20:51:31 59° WNW 20:55:37 10° NNE
CZ-4B DEB 4.4 20:48:09 10° SSE 20:51:41 82° ENE 20:55:13 10° N
Cosmos 1538 Rocket 4.1 20:47:29 10° SSW 20:52:38 79° WNW 20:57:49 10° NNE
Aureole 3 Rocket 4.4 20:47:12 10° SSE 20:54:03 43° E 20:59:03 10° NNE
NOSS 2-2 (E) 3.3 20:52:07 10° SSW 20:56:03 70° ESE 21:00:27 10° NE
Okean 1 3.6 20:53:29 10° SSW 20:57:24 68° W 21:01:22 10° N
Cosmos 1455 Rocket 3.0 20:55:04 10° N 20:59:27 76° E 21:03:42 10° S
Spot 1 4.2 20:56:12 10° SSE 21:00:52 88° ENE 21:05:17 10° NNW
Cosmos 923 Rocket 4.2 20:56:04 10° S 21:01:14 53° ESE 21:06:24 10° NNE
Cosmos 2369 Rocket 3.3 20:56:26 10° NW 21:01:46 43° WSW 21:07:05 10° S
Cosmos 1975 2.8 20:57:52 10° N 21:01:57 88° E 21:06:00 10° S
Cosmos 405 Rocket 3.0 20:59:12 12° SSE 21:02:26 43° E 21:06:02 10° NNE
Cosmos 1346 3.8 21:03:17 25° SE 21:04:00 29° E 21:06:28 10° NNE
Helios 1B rocket 2.9 21:02:27 10° N 21:06:33 65° WNW 21:10:39 10° SSW
Cosmos 1656 Rocket 4.1 21:01:27 10° N 21:06:39 44° ENE 21:10:13 19° SE
Abrixas 4.5 21:05:05 10° W 21:07:03 18° SW 21:08:28 13° S
Tiangong 2 1.7 21:04:13 10° SW 21:07:08 35° SSE 21:08:37 22° E
YAOGAN 6 2.8 21:05:25 20° SE 21:07:34 51° ENE 21:10:58 10° N
SAR-Lupe-4 3.7 21:06:12 13° S 21:09:23 76° WSW 21:12:58 10° NNW
Meteor 1-13 Rocket 4.3 21:04:44 10° S 21:10:37 67° E 21:16:30 10° NNE
ISS -1.7 21:09:20 10° S 21:09:53 13° S 21:09:53 13° S
Cosmos 1939 Rocket 2.9 21:09:19 12° S 21:12:51 74° W 21:16:43 10° NNW
COSMOS 2455 2.8 21:07:21 10° NNW 21:13:25 89° WSW 21:18:02 18° SSE
Meteor 1-29 3.5 21:11:04 10° N 21:14:23 57° WNW 21:17:41 10° SSW
Cosmos 1441 Rocket 3.9 21:15:21 26° SE 21:16:30 32° E 21:19:51 10° NNE
Cosmos 1437 3.3 21:17:12 10° SSW 21:20:22 58° W 21:23:33 10° N
Cosmos 1818 4.1 21:15:12 10° SW 21:20:33 61° WNW 21:25:58 10° NNE
Cosmos 1500 4.4 21:17:04 10° NNW 21:20:37 41° W 21:24:09 10° SSW
Cosmos 1943 Rocket 2.7 21:15:13 10° NNW 21:20:43 58° WSW 21:25:30 13° S
OAO 2 Rocket 3.3 21:17:00 10° WSW 21:21:52 61° SSE 21:25:28 18° E
ERS-1 Rocket 3.0 21:21:30 22° SSE 21:24:43 66° ENE 21:29:43 10° N
NOAA 11 4.4 21:22:31 23° SE 21:25:46 53° ENE 21:31:02 10° N
H-2A R/B 3.4 21:24:05 18° E 21:25:47 22° ENE 21:29:31 10° NNE
COSMOS 2406 3.1 21:20:20 10° SSW 21:26:03 79° ESE 21:31:47 10° NNE
Okean 1-7 Rocket 4.0 21:25:22 28° SE 21:27:10 41° E 21:31:23 10° NNE
CZ-4B DEB 4.1 21:27:35 15° SSW 21:29:36 34° W 21:32:23 10° NNW
USA 267 4.4 21:28:40 10° ENE 21:32:18 21° ESE 21:32:18 21° ESE
Cosmos 2112 Rocket 3.9 21:28:55 10° S 21:34:07 70° ESE 21:39:19 10° NNE
ARGOS 3.6 21:32:24 27° SE 21:34:54 46° ENE 21:40:03 10° N
CZ-3B Rocket 4.1 21:33:46 10° SSW 21:53:53 - ESE 21:35:28 16° S
NOSS 2-2 (D) 4.5 21:35:03 10° SW 21:38:53 47° NW 21:43:11 10° NNE
Cosmos 2082 Rocket 4.1 21:43:04 12° E 21:43:04 12° E 21:44:11 10° ENE
DNEPR-1 R/B 4.2 21:38:23 10° NNW 21:42:29 43° ENE 21:43:52 33° E
Cosmos 1743 3.2 21:39:26 10° NNW 21:43:15 58° W 21:45:14 26° SSW
Intercosmos 24 4.1 21:42:18 10° N 21:46:06 43° E 21:46:21 42° E
Okean 2 3.6 21:48:38 46° ESE 21:48:58 47° E 21:52:54 10° NNE
CENTAUR R/B 3.1 21:42:49 10° NNW 21:50:53 89° WSW 21:55:42 30° SSE
SL-27 R/B 2.5 21:50:50 41° SSW 21:52:01 86° WNW 21:55:42 10° NNE
Cosmos 2184 Rocket 4.2 21:45:46 10° N 21:52:06 74° W 21:56:27 21° S
Cosmos 2074 Rocket 4.2 21:47:12 10° NNW 21:53:24 69° W 21:57:50 20° S
Cosmos 192 4.2 21:50:22 18° SSW 21:54:02 88° ESE 21:58:58 10° NNE
USA 245 3.5 21:54:49 37° NNE 21:54:49 37° NNE 21:56:37 10° N
ASTRO E2 3.5 21:50:59 10° WSW 21:54:11 36° SSW 21:54:11 36° SSW
Aureole 1 Rocket 2.9 21:53:35 22° SW 21:55:35 56° WNW 21:58:39 10° N
YAOGAN 11 3.9 21:54:50 49° SSE 21:55:56 81° ENE 22:00:15 10° N
Cosmos 1610 Rocket 4.4 21:50:38 10° N 21:56:56 84° E 22:00:04 32° S
Cosmos 1437 Rocket 3.5 21:54:11 10° N 21:57:30 36° ENE 21:57:30 36° ENE
Cosmos 1680 Rocket 4.0 21:52:56 10° SSW 21:58:04 58° WNW 22:03:14 10° N
Cosmos 1606 Rocket 4.0 21:57:27 10° N 22:01:35 43° E 22:01:41 43° E
Cosmos 2056 Rocket 4.2 21:58:40 10° N 22:03:25 35° ENE 22:04:18 33° E
MetOp-B 4.2 22:01:02 34° S 22:03:26 75° WSW 22:08:49 10° NNW
PSLV R/B 4.4 22:01:24 10° WNW 22:04:19 34° N 22:04:42 33° NNE
Cosmos 405 2.9 22:00:59 10° N 22:04:29 86° NNE 22:04:29 86° NNE
Meteor 2-9 Rocket 4.3 22:05:37 10° NNW 22:11:03 70° W 22:13:22 36° S
Meteor 2-4 Rocket 4.4 22:07:08 12° SSW 22:12:14 52° WNW 22:17:51 10° N
Cosmos 1726 Rocket 3.9 22:08:46 10° N 22:12:47 48° ENE 22:12:47 48° ENE
SPOT 5 2.6 22:13:46 57° SSW 22:14:30 72° WSW 22:18:50 10° NNW
Cosmos 1666 4.1 22:12:53 10° NNW 22:16:15 31° W 22:17:11 27° WSW
SPOT 1/Viking Rocket 3.4 22:15:22 55° SSE 22:16:30 80° ENE 22:21:41 10° N
Cosmos 2058 Rocket 3.8 22:12:43 10° N 22:16:28 38° ENE 22:16:28 38° ENE
Landsat 7 4.0 22:17:21 51° E 22:17:40 52° ENE 22:22:17 10° N
SL-08 RB Rocket 3.6 22:20:54 64° SSW 22:21:28 75° WSW 22:25:57 10° NNW
Cosmos 962 Rocket 4.4 22:16:41 10° N 22:22:57 76° E 22:24:35 51° SSE
Cosmos 1025 Rocket 3.9 22:22:46 31° SW 22:24:16 44° W 22:28:22 10° N
Cosmos 1833 Rocket 3.7 22:28:30 30° ENE 22:28:30 30° ENE 22:32:08 10° NE
Terra 2.1 22:32:52 51° ENE 22:32:52 51° ENE 22:37:21 10° N
Cosmos 2154 Rocket 4.3 22:29:16 10° NNW 22:35:32 62° W 22:37:55 38° SSW
SL-8 Rocket 4.0 22:35:35 10° N 22:41:47 65° E 22:42:35 59° ESE
Cosmos 1371 Rocket 4.0 22:37:19 10° NNW 22:42:38 72° WSW 22:43:04 67° SW
Tiangong 2 4.2 22:40:49 10° W 22:40:57 11° W 22:40:57 11° W
H-2A R/B 2.4 22:45:09 61° NNE 22:45:09 61° NNE 22:49:06 10° N
Cosmos 2366 rocket 4.2 22:39:16 10° N 22:45:14 49° E 22:45:36 48° E
Cosmos 1980 Rocket 3.9 22:52:59 10° N 22:57:05 20° NE 22:57:51 19° ENE
Meteor 2-21 4.4 22:51:07 10° N 22:57:07 61° E 22:57:16 61° E
H-2A R/B 2.9 23:04:42 37° WSW 23:04:56 37° W 23:09:32 10° NNW
Meteor 1-22 Rocket 4.5 23:00:54 10° N 23:05:31 53° NE 23:05:31 53° NE
OAO 2 Rocket 4.4 23:01:34 10° W 23:04:26 35° W 23:04:26 35° W
SL-08 R/B 4.3 23:03:43 10° N 23:09:51 79° E 23:09:57 78° E
Cosmos 1959 Rocket 4.4 23:06:45 10° N 23:13:09 86° W 23:13:34 79° SSW
USA 267 3.2 23:10:22 10° NE 23:16:55 84° NW 23:19:33 40° SW
CZ-4 R/B 4.2 23:13:05 10° N 23:17:40 64° NW 23:17:40 64° NW
Cosmos 2218 Rocket 3.9 23:13:55 10° N 23:20:04 75° W 23:20:19 74° WSW
Cosmos 2278 3.9 23:18:38 10° NNW 23:23:52 67° WNW 23:23:52 67° WNW
Cosmos 2082 Rocket 2.3 23:24:52 69° WNW 23:24:52 69° WNW 23:30:31 10° NNE
SeaSat 1 3.8 23:29:44 31° NE 23:29:44 31° NE 23:33:38 10° N
Cosmos 2369 4.4 23:36:59 10° NNW 23:41:44 46° W 23:41:44 46° W
CZ-2C R/B 3.8 23:41:13 10° NNE 23:44:58 36° NE 23:44:58 36° NE
Nadezhda 3 Rocket 4.0 23:48:00 79° NNE 23:48:00 79° NNE 23:53:58 10° N
SL-16 R/B 4.0 23:49:25 10° N 23:53:35 20° NE 23:54:09 20° ENE
